| time (UTC) | temp F | wind direction | speed MPH | gust MPH | rain 1hr in | rain 24hr in | rain mn in | humidity % | barometer mb |
| 20260906194822 | 73 | 327 | 3.0 | 3.0 | 0.00 | 0.00 | 0.00 | 74 | 1015.2 |
| 20260906194318 | 72 | 36 | 3.0 | 3.0 | 0.00 | 0.00 | 0.00 | 76 | 1015.0 |
| 20260906193813 | 72 | 35 | 6.0 | 8.0 | 0.00 | 0.00 | 0.00 | 74 | 1015.1 |
| 20260906193308 | 75 | 34 | 5.0 | 6.0 | 0.00 | 0.00 | 0.00 | 71 | 1015.2 |
| 20260906192803 | 75 | 25 | 7.0 | 13.0 | 0.00 | 0.00 | 0.00 | 69 | 1015.1 |
| 20260906192258 | 76 | 40 | 0.0 | 1.0 | 0.00 | 0.00 | 0.00 | 69 | 1015.2 |
| 20260906191757 | 76 | 32 | 3.0 | 3.0 | 0.00 | 0.00 | 0.00 | 68 | 1015.4 |
| 20260906191252 | 75 | 48 | 2.0 | 2.0 | 0.00 | 0.00 | 0.00 | 71 | 1015.4 |
| 20260906190746 | 74 | 52 | 1.0 | 1.0 | 0.00 | 0.00 | 0.00 | 72 | 1015.7 |
| 20260906190240 | 74 | 39 | 3.0 | 6.0 | 0.00 | 0.00 | 0.00 | 73 | 1015.5 |
| 20260906185739 | 73 | 24 | 4.0 | 6.0 | 0.00 | 0.00 | 0.00 | 73 | 1015.6 |
| 20260906185238 | 72 | 7 | 3.0 | 5.0 | 0.00 | 0.00 | 0.00 | 74 | 1015.7 |
| 20260906184733 | 72 | 25 | 3.0 | 5.0 | 0.00 | 0.00 | 0.00 | 74 | 1015.4 |
| 20260906184229 | 73 | 49 | 6.0 | 8.0 | 0.00 | 0.00 | 0.00 | 75 | 1015.4 |
| 20260906183724 | 74 | 28 | 5.0 | 7.0 | 0.00 | 0.00 | 0.00 | 73 | 1015.8 |
| 20260906183221 | 76 | 56 | 5.0 | 7.0 | 0.00 | 0.00 | 0.00 | 71 | 1015.4 |
| 20260906182720 | 75 | 9 | 5.0 | 6.0 | 0.00 | 0.00 | 0.00 | 71 | 1015.7 |
| 20260906182216 | 75 | 24 | 4.0 | 7.0 | 0.00 | 0.00 | 0.00 | 70 | 1015.8 |
| 20260906181711 | 74 | 20 | 7.0 | 8.0 | 0.00 | 0.00 | 0.00 | 70 | 1015.6 |
| 20260906181208 | 73 | 38 | 1.0 | 1.0 | 0.00 | 0.00 | 0.00 | 73 | 1015.7 |
| 20260906180702 | 72 | 23 | 4.0 | 5.0 | 0.00 | 0.00 | 0.00 | 72 | 1015.6 |
| 20260906180157 | 73 | 22 | 5.0 | 5.0 | 0.00 | 0.00 | 0.00 | 71 | 1015.9 |
| 20260906175655 | 74 | 37 | 5.0 | 7.0 | 0.00 | 0.00 | 0.00 | 68 | 1015.7 |
| 20260906175150 | 74 | 31 | 2.0 | 3.0 | 0.00 | 0.00 | 0.00 | 66 | 1015.7 |
| 20260906174649 | 75 | 23 | 2.0 | 2.0 | 0.00 | 0.00 | 0.00 | 64 | 1015.5 |
| 20260906174143 | 75 | 11 | 3.0 | 3.0 | 0.00 | 0.00 | 0.00 | 63 | 1015.6 |
| 20260906173639 | 74 | 38 | 2.0 | 3.0 | 0.00 | 0.00 | 0.00 | 64 | 1015.8 |
| 20260906173134 | 76 | 31 | 2.0 | 3.0 | 0.00 | 0.00 | 0.00 | 64 | 1016.0 |
| 20260906172633 | 77 | 44 | 0.0 | 1.0 | 0.00 | 0.00 | 0.00 | 61 | 1015.8 |
| 20260906172129 | 76 | 65 | 1.0 | 1.0 | 0.00 | 0.00 | 0.00 | 58 | 1015.7 |
| 20260906171629 | 75 | 101 | 1.0 | 2.0 | 0.00 | 0.00 | 0.00 | 60 | 1015.9 |
| 20260906171125 | 75 | 20 | 2.0 | 3.0 | 0.00 | 0.00 | 0.00 | 59 | 1015.9 |
| 20260906170621 | 75 | 61 | 0.0 | 0.0 | 0.00 | 0.00 | 0.00 | 64 | 1015.8 |
| 20260906170120 | 75 | 31 | 3.0 | 3.0 | 0.00 | 0.00 | 0.00 | 62 | 1015.8 |
| 20260906165616 | 75 | 49 | 2.0 | 2.0 | 0.00 | 0.00 | 0.00 | 61 | 1015.9 |
| 20260906165112 | 75 | 77 | 1.0 | 1.0 | 0.00 | 0.00 | 0.00 | 61 | 1016.0 |
| 20260906164610 | 76 | 116 | 1.0 | 2.0 | 0.00 | 0.00 | 0.00 | 62 | 1016.0 |
| 20260906164106 | 76 | 44 | 3.0 | 3.0 | 0.00 | 0.00 | 0.00 | 62 | 1016.0 |
| 20260906163602 | 77 | 26 | 2.0 | 3.0 | 0.00 | 0.00 | 0.00 | 61 | 1016.2 |
| 20260906163057 | 76 | 38 | 3.0 | 3.0 | 0.00 | 0.00 | 0.00 | 62 | 1016.1 |
| 20260906162554 | 76 | 18 | 3.0 | 5.0 | 0.00 | 0.00 | 0.00 | 63 | 1015.8 |
| 20260906162049 | 75 | 140 | 4.0 | 8.0 | 0.00 | 0.00 | 0.00 | 63 | 1016.0 |
| 20260906161544 | 75 | 66 | 1.0 | 1.0 | 0.00 | 0.00 | 0.00 | 65 | 1016.2 |
| 20260906161043 | 76 | 104 | 2.0 | 2.0 | 0.00 | 0.00 | 0.00 | 63 | 1015.8 |
| 20260906160542 | 75 | 56 | 1.0 | 1.0 | 0.00 | 0.00 | 0.00 | 66 | 1016.0 |
| 20260906160041 | 75 | 90 | 1.0 | 2.0 | 0.00 | 0.00 | 0.00 | 67 | 1016.1 |
| 20260906155538 | 75 | 111 | 0.0 | 1.0 | 0.00 | 0.00 | 0.00 | 66 | 1016.4 |
| 20260906155035 | 75 | 100 | 5.0 | 7.0 | 0.00 | 0.00 | 0.00 | 66 | 1016.2 |
| 20260906154530 | 74 | 113 | 0.0 | 1.0 | 0.00 | 0.00 | 0.00 | 68 | 1016.2 |
| 20260906154028 | 73 | 39 | 5.0 | 8.0 | 0.00 | 0.00 | 0.00 | 70 | 1016.3 |
| 20260906153527 | 75 | 59 | 5.0 | 7.0 | 0.00 | 0.00 | 0.00 | 67 | 1016.2 |
| 20260906153023 | 74 | 63 | 3.0 | 5.0 | 0.00 | 0.00 | 0.00 | 67 | 1016.3 |
| 20260906152522 | 73 | 46 | 1.0 | 1.0 | 0.00 | 0.00 | 0.00 | 71 | 1016.2 |
| 20260906152022 | 73 | 68 | 1.0 | 1.0 | 0.00 | 0.00 | 0.00 | 70 | 1016.2 |
| 20260906151518 | 73 | 62 | 1.0 | 1.0 | 0.00 | 0.00 | 0.00 | 71 | 1016.6 |
| 20260906151013 | 72 | 72 | 1.0 | 1.0 | 0.00 | 0.00 | 0.00 | 69 | 1016.3 |
| 20260906150508 | 72 | 53 | 1.0 | 1.0 | 0.00 | 0.00 | 0.00 | 71 | 1016.3 |
| 20260906150008 | 72 | 128 | 6.0 | 8.0 | 0.00 | 0.00 | 0.00 | 71 | 1016.4 |
| 20260906145507 | 72 | 68 | 1.0 | 2.0 | 0.00 | 0.00 | 0.00 | 74 | 1016.4 |
| 20260906145002 | 72 | 56 | 0.0 | 0.0 | 0.00 | 0.00 | 0.00 | 76 | 1016.2 |
| 20260906144456 | 71 | 75 | 2.0 | 3.0 | 0.00 | 0.00 | 0.00 | 75 | 1016.4 |
| 20260906143952 | 72 | 45 | 2.0 | 2.0 | 0.00 | 0.00 | 0.00 | 78 | 1016.2 |
| 20260906143447 | 71 | 42 | 2.0 | 2.0 | 0.00 | 0.00 | 0.00 | 79 | 1016.0 |
| 20260906142943 | 71 | 40 | 4.0 | 7.0 | 0.00 | 0.00 | 0.00 | 80 | 1016.1 |
| 20260906142437 | 71 | 57 | 3.0 | 3.0 | 0.00 | 0.00 | 0.00 | 80 | 1016.2 |
| 20260906141932 | 70 | 88 | 0.0 | 1.0 | 0.00 | 0.00 | 0.00 | 79 | 1016.1 |
| 20260906141431 | 71 | 111 | 1.0 | 1.0 | 0.00 | 0.00 | 0.00 | 81 | 1016.1 |
| 20260906140926 | 71 | 67 | 0.0 | 1.0 | 0.00 | 0.00 | 0.00 | 81 | 1015.9 |
| 20260906140421 | 70 | 66 | 1.0 | 1.0 | 0.00 | 0.00 | 0.00 | 82 | 1015.9 |
| 20260906135919 | 71 | 120 | 0.0 | 0.0 | 0.00 | 0.00 | 0.00 | 81 | 1016.1 |
| 20260906135418 | 70 | 76 | 0.0 | 1.0 | 0.00 | 0.00 | 0.00 | 82 | 1016.1 |
| 20260906134914 | 70 | 123 | 1.0 | 2.0 | 0.00 | 0.00 | 0.00 | 85 | 1015.9 |
| 20260906134409 | 70 | 114 | 0.0 | 0.0 | 0.00 | 0.00 | 0.00 | 85 | 1015.9 |
| 20260906133904 | 68 | 114 | 0.0 | 0.0 | 0.00 | 0.00 | 0.00 | 90 | 1015.9 |
| 20260906133400 | 67 | 113 | 0.0 | 0.0 | 0.00 | 0.00 | 0.00 | 94 | 1015.8 |
| 20260906132855 | 66 | 114 | 0.0 | 0.0 | 0.00 | 0.00 | 0.00 | 99 | 1016.0 |
| 20260906132350 | 64 | 114 | 0.0 | 0.0 | 0.00 | 0.00 | 0.00 | 99 | 1015.9 |
| 20260906131846 | 64 | 114 | 0.0 | 0.0 | 0.00 | 0.00 | 0.00 | 99 | 1015.8 |
| 20260906131341 | 63 | 113 | 0.0 | 0.0 | 0.00 | 0.00 | 0.00 | 99 | 1015.8 |
| 20260906130837 | 64 | 114 | 0.0 | 0.0 | 0.00 | 0.00 | 0.00 | 99 | 1015.8 |
| 20260906130336 | 62 | 113 | 0.0 | 0.0 | 0.00 | 0.00 | 0.00 | 99 | 1015.8 |
| 20260906125835 | 60 | 113 | 0.0 | 0.0 | 0.00 | 0.00 | 0.00 | 99 | 1015.3 |
| 20260906125332 | 60 | 112 | 0.0 | 0.0 | 0.00 | 0.00 | 0.00 | 99 | 1015.6 |
| 20260906124827 | 59 | 108 | 0.0 | 0.0 | 0.00 | 0.00 | 0.00 | 99 | 1015.7 |
| 20260906124324 | 59 | 97 | 0.0 | 0.0 | 0.00 | 0.00 | 0.00 | 99 | 1015.5 |
| 20260906123823 | 58 | 95 | 0.0 | 0.0 | 0.00 | 0.00 | 0.00 | 99 | 1015.4 |
| 20260906123318 | 58 | 95 | 0.0 | 0.0 | 0.00 | 0.00 | 0.00 | 99 | 1015.6 |
| 20260906122817 | 57 | 94 | 0.0 | 0.0 | 0.00 | 0.00 | 0.00 | 99 | 1015.6 |
| 20260906122312 | 57 | 90 | 0.0 | 0.0 | 0.00 | 0.00 | 0.00 | 99 | 1015.5 |
| 20260906121809 | 59 | 51 | 0.0 | 0.0 | 0.00 | 0.00 | 0.00 | 99 | 1015.2 |
| 20260906121305 | 62 | 46 | 0.0 | 0.0 | 0.00 | 0.00 | 0.00 | 99 | 1015.3 |
| 20260906120801 | 57 | 34 | 0.0 | 0.0 | 0.00 | 0.00 | 0.00 | 99 | 1015.2 |
| 20260906120257 | 57 | 30 | 0.0 | 0.0 | 0.00 | 0.00 | 0.00 | 99 | 1015.4 |
| 20260906115753 | 55 | 30 | 0.0 | 0.0 | 0.00 | 0.00 | 0.00 | 99 | 1015.1 |
| 20260906115248 | 55 | 30 | 0.0 | 0.0 | 0.00 | 0.00 | 0.00 | 99 | 1015.2 |
| 20260906114747 | 54 | 30 | 0.0 | 0.0 | 0.00 | 0.00 | 0.00 | 99 | 1015.2 |
| 20260906114242 | 54 | 30 | 0.0 | 0.0 | 0.00 | 0.00 | 0.00 | 99 | 1014.9 |
| 20260906113738 | 54 | 30 | 0.0 | 0.0 | 0.00 | 0.00 | 0.00 | 99 | 1015.1 |
| 20260906113237 | 53 | 25 | 0.0 | 0.0 | 0.00 | 0.00 | 0.00 | 99 | 1015.0 |
| 20260906112737 | 53 | 25 | 0.0 | 0.0 | 0.00 | 0.00 | 0.00 | 99 | 1014.8 |
| 20260906112233 | 53 | 25 | 0.0 | 0.0 | 0.00 | 0.00 | 0.00 | 99 | 1014.7 |
| 20260906111733 | 53 | 25 | 0.0 | 0.0 | 0.00 | 0.00 | 0.00 | 99 | 1014.9 |
| 20260906111227 | 53 | 25 | 0.0 | 0.0 | 0.00 | 0.00 | 0.00 | 99 | 1014.4 |
| 20260906110722 | 53 | 25 | 0.0 | 0.0 | 0.00 | 0.00 | 0.00 | 99 | 1014.9 |
| 20260906110218 | 53 | 25 | 0.0 | 0.0 | 0.00 | 0.00 | 0.00 | 99 | 1014.2 |
| 20260906105717 | 53 | 25 | 0.0 | 0.0 | 0.00 | 0.00 | 0.00 | 99 | 1014.3 |
| 20260906105214 | 53 | 25 | 0.0 | 0.0 | 0.00 | 0.00 | 0.00 | 99 | 1014.4 |
| 20260906104713 | 53 | 25 | 0.0 | 0.0 | 0.00 | 0.00 | 0.00 | 99 | 1014.3 |
| 20260906104212 | 53 | 25 | 0.0 | 0.0 | 0.00 | 0.00 | 0.00 | 99 | 1014.7 |
| 20260906103710 | 53 | 25 | 0.0 | 0.0 | 0.00 | 0.00 | 0.00 | 99 | 1014.7 |
| 20260906103205 | 53 | 25 | 0.0 | 0.0 | 0.00 | 0.00 | 0.00 | 99 | 1014.8 |
| 20260906102701 | 53 | 25 | 0.0 | 0.0 | 0.00 | 0.00 | 0.00 | 99 | 1014.7 |
| 20260906102159 | 53 | 25 | 0.0 | 0.0 | 0.00 | 0.00 | 0.00 | 99 | 1014.6 |
| 20260906101654 | 53 | 24 | 0.0 | 0.0 | 0.00 | 0.00 | 0.00 | 99 | 1014.6 |
| 20260906101149 | 54 | 24 | 0.0 | 0.0 | 0.00 | 0.00 | 0.00 | 99 | 1014.4 |
| 20260906100644 | 54 | 322 | 0.0 | 0.0 | 0.00 | 0.00 | 0.00 | 99 | 1014.6 |
| 20260906100139 | 54 | 322 | 0.0 | 0.0 | 0.00 | 0.00 | 0.00 | 99 | 1014.3 |
| 20260906095634 | 54 | 322 | 0.0 | 0.0 | 0.00 | 0.00 | 0.00 | 99 | 1014.8 |
| 20260906095129 | 53 | 323 | 0.0 | 0.0 | 0.00 | 0.00 | 0.00 | 99 | 1014.4 |
| 20260906094628 | 53 | 323 | 0.0 | 0.0 | 0.00 | 0.00 | 0.00 | 99 | 1014.9 |
| 20260906094124 | 53 | 323 | 0.0 | 0.0 | 0.00 | 0.00 | 0.00 | 99 | 1014.4 |
| 20260906093621 | 53 | 323 | 0.0 | 0.0 | 0.00 | 0.00 | 0.00 | 99 | 1014.3 |
| 20260906093120 | 54 | 323 | 0.0 | 0.0 | 0.00 | 0.00 | 0.00 | 99 | 1014.3 |
| 20260906092615 | 54 | 323 | 0.0 | 0.0 | 0.00 | 0.00 | 0.00 | 99 | 1014.3 |
| 20260906092110 | 54 | 323 | 0.0 | 0.0 | 0.00 | 0.00 | 0.00 | 99 | 1014.4 |
| 20260906091606 | 54 | 323 | 0.0 | 0.0 | 0.00 | 0.00 | 0.00 | 99 | 1014.2 |
| 20260906091103 | 54 | 323 | 0.0 | 0.0 | 0.00 | 0.00 | 0.00 | 99 | 1014.4 |
| 20260906090603 | 54 | 323 | 0.0 | 0.0 | 0.00 | 0.00 | 0.00 | 99 | 1014.2 |
| 20260906085602 | 54 | 323 | 0.0 | 0.0 | 0.00 | 0.00 | 0.00 | 99 | 1014.7 |
| 20260906085056 | 54 | 323 | 0.0 | 0.0 | 0.00 | 0.00 | 0.00 | 99 | 1014.3 |
| 20260906084551 | 54 | 322 | 0.0 | 0.0 | 0.00 | 0.00 | 0.00 | 99 | 1014.4 |
| 20260906084050 | 54 | 323 | 0.0 | 0.0 | 0.00 | 0.00 | 0.00 | 99 | 1014.4 |
| 20260906083546 | 54 | 322 | 0.0 | 0.0 | 0.00 | 0.00 | 0.00 | 99 | 1014.3 |
| 20260906083045 | 54 | 323 | 0.0 | 0.0 | 0.00 | 0.00 | 0.00 | 99 | 1014.1 |
| 20260906082540 | 55 | 323 | 0.0 | 0.0 | 0.00 | 0.00 | 0.00 | 99 | 1014.0 |
| 20260906082036 | 55 | 323 | 0.0 | 0.0 | 0.00 | 0.00 | 0.00 | 99 | 1014.1 |
| 20260906081532 | 55 | 322 | 0.0 | 0.0 | 0.00 | 0.00 | 0.00 | 99 | 1014.3 |
| 20260906081027 | 55 | 323 | 0.0 | 0.0 | 0.00 | 0.00 | 0.00 | 99 | 1014.3 |
| 20260906080523 | 54 | 323 | 0.0 | 0.0 | 0.00 | 0.00 | 0.00 | 99 | 1014.0 |
| 20260906080020 | 55 | 322 | 0.0 | 0.0 | 0.00 | 0.00 | 0.00 | 99 | 1014.0 |
| 20260906075513 | 55 | 322 | 0.0 | 0.0 | 0.00 | 0.00 | 0.00 | 99 | 1013.8 |
| 20260906075008 | 55 | 322 | 0.0 | 0.0 | 0.00 | 0.00 | 0.00 | 99 | 1013.8 |
| 20260906074503 | 55 | 322 | 0.0 | 0.0 | 0.00 | 0.00 | 0.00 | 99 | 1013.9 |
| 20260906074001 | 55 | 322 | 0.0 | 0.0 | 0.00 | 0.00 | 0.00 | 99 | 1013.7 |
| 20260906073456 | 55 | 322 | 0.0 | 0.0 | 0.00 | 0.00 | 0.00 | 99 | 1014.0 |
| 20260906072953 | 55 | 323 | 0.0 | 0.0 | 0.00 | 0.00 | 0.00 | 99 | 1013.8 |
| 20260906072448 | 55 | 323 | 0.0 | 0.0 | 0.00 | 0.00 | 0.00 | 99 | 1013.7 |
| 20260906071943 | 55 | 323 | 0.0 | 0.0 | 0.00 | 0.00 | 0.00 | 99 | 1013.9 |
| 20260906071439 | 55 | 323 | 0.0 | 0.0 | 0.00 | 0.00 | 0.00 | 99 | 1013.6 |
| 20260906070935 | 55 | 323 | 0.0 | 0.0 | 0.00 | 0.00 | 0.00 | 99 | 1013.5 |
| 20260906070431 | 56 | 323 | 0.0 | 0.0 | 0.00 | 0.00 | 0.00 | 99 | 1013.6 |
| 20260906065926 | 56 | 323 | 0.0 | 0.0 | 0.00 | 0.00 | 0.00 | 99 | 1013.5 |
| 20260906065421 | 55 | 323 | 0.0 | 0.0 | 0.00 | 0.00 | 0.00 | 99 | 1013.5 |
| 20260906064916 | 55 | 323 | 0.0 | 0.0 | 0.00 | 0.00 | 0.00 | 99 | 1013.4 |
| 20260906064412 | 55 | 323 | 0.0 | 0.0 | 0.00 | 0.00 | 0.00 | 99 | 1013.7 |
| 20260906063907 | 56 | 323 | 0.0 | 0.0 | 0.00 | 0.00 | 0.00 | 99 | 1013.8 |
| 20260906063402 | 56 | 323 | 0.0 | 0.0 | 0.00 | 0.00 | 0.00 | 99 | 1013.7 |
| 20260906062857 | 56 | 323 | 0.0 | 0.0 | 0.00 | 0.00 | 0.00 | 99 | 1013.7 |
| 20260906062356 | 56 | 322 | 0.0 | 0.0 | 0.00 | 0.00 | 0.00 | 99 | 1013.8 |
| 20260906061851 | 57 | 323 | 0.0 | 0.0 | 0.00 | 0.00 | 0.00 | 99 | 1013.5 |
| 20260906061348 | 57 | 323 | 0.0 | 0.0 | 0.00 | 0.00 | 0.00 | 99 | 1013.5 |
| 20260906060842 | 57 | 322 | 0.0 | 0.0 | 0.00 | 0.00 | 0.00 | 99 | 1013.7 |
| 20260906060340 | 57 | 323 | 0.0 | 0.0 | 0.00 | 0.00 | 0.00 | 99 | 1013.5 |
| 20260906055836 | 56 | 323 | 0.0 | 0.0 | 0.00 | 0.00 | 0.00 | 99 | 1013.5 |
| 20260906055331 | 57 | 323 | 0.0 | 0.0 | 0.00 | 0.00 | 0.00 | 99 | 1013.6 |
| 20260906054826 | 57 | 323 | 0.0 | 0.0 | 0.00 | 0.00 | 0.00 | 99 | 1013.4 |
| 20260906054321 | 57 | 323 | 0.0 | 0.0 | 0.00 | 0.00 | 0.00 | 99 | 1013.7 |
| 20260906053818 | 57 | 323 | 0.0 | 0.0 | 0.00 | 0.00 | 0.00 | 99 | 1013.4 |
| 20260906053313 | 57 | 323 | 0.0 | 0.0 | 0.00 | 0.00 | 0.00 | 99 | 1013.4 |
| 20260906052808 | 57 | 323 | 0.0 | 0.0 | 0.00 | 0.00 | 0.00 | 99 | 1013.5 |
| 20260906052306 | 57 | 323 | 0.0 | 0.0 | 0.00 | 0.00 | 0.00 | 99 | 1013.7 |
| 20260906051802 | 57 | 323 | 0.0 | 0.0 | 0.00 | 0.00 | 0.00 | 99 | 1013.7 |
| 20260906051301 | 57 | 323 | 0.0 | 0.0 | 0.00 | 0.00 | 0.00 | 99 | 1013.7 |
| 20260906050756 | 57 | 323 | 0.0 | 0.0 | 0.00 | 0.00 | 0.00 | 99 | 1013.6 |
| 20260906050252 | 57 | 323 | 0.0 | 0.0 | 0.00 | 0.00 | 0.00 | 99 | 1013.6 |
| 20260906045750 | 57 | 323 | 0.0 | 0.0 | 0.00 | 0.00 | 0.00 | 99 | 1013.8 |
| 20260906045245 | 58 | 323 | 0.0 | 0.0 | 0.00 | 0.00 | 0.00 | 99 | 1013.9 |
| 20260906044741 | 58 | 322 | 0.0 | 0.0 | 0.00 | 0.00 | 0.00 | 99 | 1013.8 |
| 20260906044236 | 58 | 335 | 0.0 | 0.0 | 0.00 | 0.00 | 0.00 | 99 | 1013.8 |
| 20260906043732 | 58 | 359 | 0.0 | 0.0 | 0.00 | 0.00 | 0.00 | 99 | 1013.7 |
| 20260906043228 | 58 | 33 | 0.0 | 0.0 | 0.00 | 0.00 | 0.00 | 99 | 1013.7 |
| 20260906042727 | 58 | 38 | 0.0 | 0.0 | 0.00 | 0.00 | 0.00 | 99 | 1013.6 |
| 20260906042226 | 58 | 38 | 0.0 | 0.0 | 0.00 | 0.00 | 0.00 | 99 | 1013.4 |
| 20260906041722 | 58 | 37 | 0.0 | 0.0 | 0.00 | 0.00 | 0.00 | 99 | 1013.4 |
| 20260906041217 | 58 | 37 | 0.0 | 0.0 | 0.00 | 0.00 | 0.00 | 99 | 1013.4 |
| 20260906040713 | 58 | 37 | 0.0 | 0.0 | 0.00 | 0.00 | 0.00 | 99 | 1013.7 |
| 20260906040208 | 58 | 37 | 0.0 | 0.0 | 0.00 | 0.00 | 0.00 | 99 | 1013.8 |
| 20260906035704 | 58 | 37 | 0.0 | 0.0 | 0.00 | 0.13 | 0.13 | 99 | 1013.5 |
| 20260906035159 | 58 | 37 | 0.0 | 0.0 | 0.00 | 0.13 | 0.13 | 99 | 1013.7 |
| 20260906034659 | 58 | 37 | 0.0 | 0.0 | 0.00 | 0.13 | 0.13 | 99 | 1013.6 |
| 20260906034153 | 58 | 37 | 0.0 | 0.0 | 0.00 | 0.13 | 0.13 | 99 | 1013.3 |
| 20260906033649 | 59 | 37 | 0.0 | 0.0 | 0.00 | 0.13 | 0.13 | 99 | 1013.5 |
| 20260906033143 | 59 | 37 | 0.0 | 0.0 | 0.00 | 0.13 | 0.13 | 99 | 1013.8 |
| 20260906032641 | 59 | 38 | 0.0 | 0.0 | 0.00 | 0.13 | 0.13 | 99 | 1013.7 |
| 20260906032140 | 59 | 38 | 0.0 | 0.0 | 0.00 | 0.13 | 0.13 | 99 | 1013.5 |
| 20260906031636 | 59 | 38 | 0.0 | 0.0 | 0.00 | 0.13 | 0.13 | 99 | 1013.5 |
| 20260906031131 | 59 | 38 | 0.0 | 0.0 | 0.00 | 0.13 | 0.13 | 99 | 1013.6 |
| 20260906030630 | 59 | 38 | 0.0 | 0.0 | 0.00 | 0.13 | 0.13 | 99 | 1013.7 |
| 20260906030126 | 59 | 38 | 0.0 | 0.0 | 0.00 | 0.13 | 0.13 | 99 | 1013.5 |
| 20260906025625 | 59 | 38 | 0.0 | 0.0 | 0.00 | 0.13 | 0.13 | 99 | 1013.3 |
| 20260906025124 | 59 | 38 | 0.0 | 0.0 | 0.00 | 0.13 | 0.13 | 99 | 1013.5 |
| 20260906024619 | 59 | 38 | 0.0 | 0.0 | 0.00 | 0.13 | 0.13 | 99 | 1013.4 |
| 20260906024113 | 59 | 38 | 0.0 | 0.0 | 0.00 | 0.13 | 0.13 | 99 | 1013.4 |
| 20260906023610 | 60 | 38 | 0.0 | 0.0 | 0.00 | 0.13 | 0.13 | 99 | 1013.2 |
| 20260906023109 | 59 | 38 | 0.0 | 0.0 | 0.00 | 0.13 | 0.13 | 98 | 1013.4 |
| 20260906022605 | 60 | 38 | 0.0 | 0.0 | 0.00 | 0.13 | 0.13 | 98 | 1013.4 |
| 20260906022100 | 60 | 38 | 0.0 | 0.0 | 0.00 | 0.13 | 0.13 | 98 | 1013.1 |
| 20260906021556 | 60 | 38 | 0.0 | 0.0 | 0.00 | 0.13 | 0.13 | 97 | 1013.0 |
| 20260906021054 | 60 | 38 | 0.0 | 0.0 | 0.00 | 0.13 | 0.13 | 96 | 1013.1 |
| 20260906020554 | 60 | 38 | 0.0 | 0.0 | 0.00 | 0.13 | 0.13 | 96 | 1013.0 |
| 20260906020054 | 60 | 38 | 0.0 | 0.0 | 0.00 | 0.13 | 0.13 | 96 | 1013.0 |
| 20260906015548 | 60 | 38 | 0.0 | 0.0 | 0.00 | 0.13 | 0.13 | 96 | 1013.1 |
| 20260906015047 | 60 | 38 | 0.0 | 0.0 | 0.00 | 0.13 | 0.13 | 95 | 1013.2 |
| 20260906014542 | 61 | 37 | 0.0 | 0.0 | 0.00 | 0.13 | 0.13 | 95 | 1013.1 |
| 20260906014038 | 61 | 37 | 0.0 | 0.0 | 0.00 | 0.13 | 0.13 | 95 | 1012.9 |
| 20260906013533 | 61 | 37 | 0.0 | 0.0 | 0.00 | 0.13 | 0.13 | 95 | 1013.1 |
| 20260906013029 | 62 | 37 | 0.0 | 0.0 | 0.00 | 0.13 | 0.13 | 94 | 1013.0 |
| 20260906012524 | 61 | 37 | 0.0 | 0.0 | 0.00 | 0.13 | 0.13 | 93 | 1013.1 |
| 20260906012023 | 61 | 38 | 0.0 | 0.0 | 0.00 | 0.13 | 0.13 | 93 | 1013.3 |
| 20260906011519 | 61 | 38 | 0.0 | 0.0 | 0.00 | 0.13 | 0.13 | 94 | 1013.1 |
| 20260906011019 | 62 | 38 | 0.0 | 0.0 | 0.00 | 0.13 | 0.13 | 94 | 1013.1 |
| 20260906010514 | 62 | 38 | 0.0 | 0.0 | 0.00 | 0.13 | 0.13 | 92 | 1012.8 |
| 20260906010011 | 63 | 38 | 0.0 | 0.0 | 0.00 | 0.13 | 0.13 | 91 | 1012.7 |
| 20260906005510 | 63 | 38 | 0.0 | 0.0 | 0.00 | 0.13 | 0.13 | 89 | 1012.8 |
| 20260906005009 | 63 | 38 | 0.0 | 0.0 | 0.00 | 0.13 | 0.13 | 87 | 1012.7 |
| 20260906004503 | 64 | 38 | 0.0 | 0.0 | 0.00 | 0.13 | 0.13 | 87 | 1012.9 |
| 20260906003958 | 64 | 38 | 0.0 | 0.0 | 0.00 | 0.13 | 0.13 | 83 | 1012.9 |
| 20260906003453 | 64 | 38 | 0.0 | 0.0 | 0.00 | 0.13 | 0.13 | 82 | 1013.0 |
| 20260906002948 | 65 | 38 | 0.0 | 0.0 | 0.00 | 0.13 | 0.13 | 82 | 1012.9 |
| 20260906002443 | 65 | 38 | 0.0 | 0.0 | 0.00 | 0.13 | 0.13 | 82 | 1012.7 |
| 20260906001938 | 66 | 37 | 0.0 | 0.0 | 0.00 | 0.13 | 0.13 | 82 | 1012.7 |
| 20260906001434 | 66 | 34 | 0.0 | 0.0 | 0.00 | 0.13 | 0.13 | 81 | 1012.6 |
| 20260906000928 | 67 | 34 | 0.0 | 0.0 | 0.00 | 0.13 | 0.13 | 79 | 1012.5 |
| 20260906000425 | 67 | 33 | 0.0 | 0.0 | 0.00 | 0.13 | 0.13 | 78 | 1012.5 |
| 20260905235913 | 67 | 34 | 0.0 | 0.0 | 0.00 | 0.13 | 0.13 | 78 | 1012.5 |
| 20260905235407 | 68 | 35 | 0.0 | 0.0 | 0.00 | 0.13 | 0.13 | 78 | 1012.5 |
| 20260905234902 | 69 | 34 | 0.0 | 0.0 | 0.00 | 0.13 | 0.13 | 74 | 1012.4 |
| 20260905234357 | 69 | 40 | 0.0 | 1.0 | 0.00 | 0.13 | 0.13 | 73 | 1012.4 |
| 20260905233852 | 69 | 33 | 3.0 | 3.0 | 0.00 | 0.13 | 0.13 | 72 | 1012.2 |
| 20260905233347 | 70 | 23 | 2.0 | 2.0 | 0.00 | 0.13 | 0.13 | 71 | 1012.4 |
| 20260905232847 | 70 | 23 | 3.0 | 3.0 | 0.00 | 0.13 | 0.13 | 71 | 1012.1 |
| 20260905232343 | 70 | 21 | 2.0 | 2.0 | 0.00 | 0.13 | 0.13 | 71 | 1012.3 |
| 20260905231839 | 70 | 32 | 4.0 | 6.0 | 0.00 | 0.13 | 0.13 | 71 | 1012.2 |
| 20260905231338 | 70 | 23 | 4.0 | 5.0 | 0.00 | 0.13 | 0.13 | 72 | 1012.3 |
| 20260905230836 | 70 | 28 | 4.0 | 6.0 | 0.00 | 0.13 | 0.13 | 74 | 1012.1 |
| 20260905230333 | 71 | 359 | 3.0 | 5.0 | 0.00 | 0.13 | 0.13 | 74 | 1012.2 |
| 20260905225832 | 71 | 26 | 5.0 | 6.0 | 0.00 | 0.13 | 0.13 | 74 | 1012.2 |
| 20260905225328 | 71 | 44 | 3.0 | 6.0 | 0.00 | 0.13 | 0.13 | 76 | 1012.0 |
| 20260905224827 | 71 | 0 | 5.0 | 6.0 | 0.00 | 0.13 | 0.13 | 76 | 1012.0 |
| 20260905224324 | 71 | 25 | 3.0 | 3.0 | 0.00 | 0.13 | 0.13 | 75 | 1011.9 |
| 20260905223818 | 71 | 62 | 4.0 | 6.0 | 0.00 | 0.13 | 0.13 | 74 | 1011.9 |
| 20260905223316 | 71 | 13 | 5.0 | 7.0 | 0.00 | 0.13 | 0.13 | 74 | 1011.8 |
| 20260905222811 | 72 | 20 | 5.0 | 7.0 | 0.00 | 0.13 | 0.13 | 74 | 1012.1 |
| 20260905222309 | 72 | 26 | 9.0 | 10.0 | 0.00 | 0.13 | 0.13 | 74 | 1011.8 |
| 20260905221806 | 72 | 15 | 3.0 | 3.0 | 0.00 | 0.13 | 0.13 | 75 | 1011.7 |
| 20260905221303 | 72 | 5 | 5.0 | 6.0 | 0.00 | 0.13 | 0.13 | 75 | 1011.8 |
| 20260905220758 | 73 | 30 | 7.0 | 8.0 | 0.00 | 0.13 | 0.13 | 74 | 1011.9 |
| 20260905220254 | 73 | 12 | 6.0 | 9.0 | 0.00 | 0.13 | 0.13 | 75 | 1011.6 |
| 20260905215753 | 73 | 56 | 7.0 | 8.0 | 0.00 | 0.13 | 0.13 | 73 | 1012.0 |
| 20260905215249 | 73 | 40 | 3.0 | 3.0 | 0.00 | 0.13 | 0.13 | 75 | 1011.6 |
| 20260905214744 | 72 | 8 | 6.0 | 6.0 | 0.00 | 0.13 | 0.13 | 76 | 1011.7 |
| 20260905214240 | 73 | 31 | 3.0 | 3.0 | 0.00 | 0.13 | 0.13 | 77 | 1011.5 |
| 20260905213735 | 73 | 2 | 7.0 | 8.0 | 0.00 | 0.13 | 0.13 | 76 | 1011.4 |
| 20260905213232 | 73 | 16 | 6.0 | 8.0 | 0.00 | 0.13 | 0.13 | 77 | 1011.5 |
| 20260905212727 | 73 | 5 | 2.0 | 3.0 | 0.00 | 0.13 | 0.13 | 78 | 1011.2 |
| 20260905212226 | 72 | 25 | 3.0 | 3.0 | 0.00 | 0.13 | 0.13 | 79 | 1011.6 |
| 20260905211725 | 73 | 2 | 3.0 | 3.0 | 0.00 | 0.13 | 0.13 | 80 | 1011.4 |
| 20260905211221 | 73 | 35 | 5.0 | 6.0 | 0.00 | 0.13 | 0.13 | 80 | 1011.5 |
| 20260905210718 | 73 | 31 | 5.0 | 7.0 | 0.00 | 0.13 | 0.13 | 79 | 1011.4 |
| 20260905210217 | 72 | 23 | 8.0 | 9.0 | 0.00 | 0.13 | 0.13 | 80 | 1011.3 |
| 20260905205716 | 73 | 15 | 5.0 | 6.0 | 0.00 | 0.13 | 0.13 | 80 | 1011.2 |
| 20260905205211 | 73 | 339 | 7.0 | 9.0 | 0.00 | 0.13 | 0.13 | 81 | 1011.3 |
| 20260905204710 | 73 | 29 | 4.0 | 5.0 | 0.00 | 0.13 | 0.13 | 83 | 1011.5 |
| 20260905204206 | 73 | 45 | 3.0 | 5.0 | 0.00 | 0.13 | 0.13 | 83 | 1011.5 |
| 20260905203700 | 73 | 18 | 5.0 | 6.0 | 0.00 | 0.13 | 0.13 | 83 | 1011.5 |
| 20260905203156 | 74 | 44 | 4.0 | 6.0 | 0.00 | 0.13 | 0.13 | 82 | 1011.5 |
| 20260905202651 | 74 | 30 | 6.0 | 8.0 | 0.00 | 0.13 | 0.13 | 82 | 1011.5 |
| 20260905202146 | 74 | 30 | 3.0 | 5.0 | 0.00 | 0.13 | 0.13 | 84 | 1011.8 |
| 20260905201642 | 74 | 18 | 6.0 | 9.0 | 0.00 | 0.13 | 0.13 | 85 | 1011.7 |
| 20260905201141 | 75 | 29 | 3.0 | 5.0 | 0.00 | 0.13 | 0.13 | 85 | 1011.7 |
| 20260905200637 | 75 | 8 | 6.0 | 8.0 | 0.00 | 0.13 | 0.13 | 84 | 1011.6 |
| 20260905200132 | 75 | 32 | 1.0 | 2.0 | 0.00 | 0.13 | 0.13 | 84 | 1011.7 |
| 20260905195630 | 76 | 346 | 5.0 | 6.0 | 0.00 | 0.13 | 0.13 | 84 | 1011.7 |
| 20260905195126 | 76 | 48 | 3.0 | 5.0 | 0.00 | 0.13 | 0.13 | 84 | 1011.3 |